User: anonymous   Login
Location: Newark
(27.9675°N, 86.8869°E)
Time: 08:08:09
(UTC+00:00)
Language:

SR - Orbit

View from above orbital plane
View from above orbital plane
View from above satellite
View from above satellite

Ground track
Ground track

The orbit data is extracted from the following two-line orbital elements,

1    46U 60007B   19291.61808887  .00000017  00000-0  26366-4 0  9996
2    46  66.6914 342.6688 0215790 310.8097  47.4467 14.49250214103911
Epoch (UTC): 18 October 2019 14:50:02
Eccentricity: 0.0215790
inclination: 66.6914°
perigee height: 575 km
apogee height: 881 km
right ascension of ascending node: 342.6688°
argument of perigee: 310.8097°
revolutions per day: 14.49250214
mean anomaly at epoch: 47.4467°
orbit number at epoch: 10391

The dashed part of the orbit path shows where the satellite is in the earth's shadow,  

DLR